Flag for Cameroon Weather past 2 weeks in Yaoundé, Cameroon

Now
70 °F

Partly cloudy.


Feels Like: 70 °F
Forecast: 67 / 77 °F
Wind: 3 mph from Southwest

Location: Yaounde Airport

Current Time: Jul 3, 2015 at 12:20:26 AM

Latest Report: Jul 3, 2015 at 12:00 AM


Visibility: N/A

Pressure: 30.09 "Hg

Humidity: 94%

Dew point: 68 °F

Location of YaoundéLocation

Historic Weather in Yaoundé — Graph

°F

Yaoundé temperature yesterday

Maximum temperature yesterday: 75 °F (at 12:00 PM)
Minimum temperature yesterday: 68 °F (at 4:00 AM)
Average temperature yesterday: 71 °F

Past Weeks' High & Low Weather Summary

 TemperatureHumidityPressure
High82 °F (Jun 18, 1:00 PM)100% (Jun 20, 11:00 PM)30.21 "Hg (Jun 20, 11:00 PM)
Low68 °F (Jun 21, 2:00 AM)66% (Jun 18, 1:00 PM)29.95 "Hg (Jun 18, 4:00 PM)
Average73 °F86%30.09 "Hg
* Reported Jun 17 11:00 PM — Jul 2 11:00 PM, Yaoundé, Weather by CustomWeather, © 2015

Note: Actual official high and low records may vary slightly from our data, if they occured in-between our weather recording intervals... More about our weather records

Advertising

Yaoundé weather history for previous 24 hours

 ConditionsComfort  
Time TempWeatherWind HumidityBarometerVisibility
11:00 PM
Thu, Jul 2
70 °FPassing clouds.2 mph94%30.09 "HgN/A
10:00 PM70 °FPassing clouds.2 mph94%30.09 "HgN/A
9:00 PM70 °FPassing clouds.2 mph94%30.09 "HgN/A
8:00 PM70 °FPassing clouds.3 mph94%30.07 "HgN/A
7:00 PM72 °FPassing clouds.3 mph88%30.04 "HgN/A
6:00 PM72 °FScattered clouds.2 mph88%30.01 "HgN/A
5:00 PM73 °FPartly sunny.3 mph83%30.01 "HgN/A
4:00 PM73 °FBroken clouds.6 mph83%30.01 "HgN/A
3:00 PM73 °FBroken clouds.3 mph83%30.04 "HgN/A
2:00 PM73 °FBroken clouds.7 mph89%30.04 "HgN/A
1:00 PM75 °FBroken clouds.5 mph78%30.07 "HgN/A
12:00 PM75 °FPartly sunny.8 mph78%30.07 "HgN/A
11:00 AM72 °FLight rain. Partly sunny.6 mph88%30.09 "HgN/A
9:00 AM70 °FBroken clouds.5 mph94%30.09 "HgN/A
8:00 AM70 °FBroken clouds.3 mph94%30.09 "HgN/A
7:00 AM68 °FDrizzle. Broken clouds.1 mph100%30.09 "HgN/A
6:00 AM68 °FPartly cloudy.2 mph100%30.07 "Hg4 mi
5:00 AM68 °FPassing clouds.5 mph100%30.07 "Hg5 mi
4:00 AM68 °FPassing clouds.5 mph94%30.04 "Hg5 mi
3:00 AM70 °FPassing clouds.3 mph94%30.04 "Hg5 mi
1:00 AM70 °FPassing clouds.3 mph94%30.07 "Hg5 mi
12:00 AM70 °FPassing clouds.6 mph94%30.09 "Hg5 mi
Weather by CustomWeather, © 2015

See weather overviewHow to use our weather pages